{"data":{"norad_id":58021,"epoch":"2026-05-25T04:23:31.617312Z","epoch_age_seconds":56152,"freshness":"FRESH","line1":"1 58021U 23155F   26145.18300483  .00008749  00000+0  39380-3 0  9990","line2":"2 58021  97.5427 221.7974 0003650 329.8212  30.2813 15.21323534144684","mean_motion":15.21323534,"eccentricity":0.000365,"inclination_deg":97.5427,"raan_deg":221.7974,"arg_perigee_deg":329.8212,"mean_anomaly_deg":30.2813,"bstar":0.0003938,"rev_number":14468,"period_min":94.65442214082,"perigee_km":499.33618599093,"apogee_km":504.35857458854,"semimajor_km":6879.9843802897,"source":"CELESTRAK","updated_at":"2026-05-25T13:38:00.426793Z"}}